Location: Hysolar-Haus
(48.7436°N, 9.0965°E)
Time: 19:55:27
(UTC+00:00)

OTV 5 (USA 277) - Visible Passes

Search period start: 22 April 2019 00:00
Search period end: 02 May 2019 00:00
Orbit: 309 x 326 km, 54.5° (Epoch: 21 April)

Date Brightness Start Highest point End Pass type
(mag) Time Alt. Az. Time Alt. Az. Time Alt. Az.
22 Apr ? 02:47:40 40° WSW 02:48:06 44° SW 02:50:40 10° SE visible
23 Apr ? 03:03:44 16° SSW 03:03:44 16° SSW 03:04:42 10° S visible
23 Apr ? 19:23:32 10° S 19:25:15 15° SE 19:25:21 15° SE visible
24 Apr ? 19:37:16 10° SSW 19:39:47 33° SE 19:41:45 14° E visible
24 Apr ? 21:11:29 10° W 21:12:45 22° WNW 21:12:45 22° WNW visible
25 Apr ? 19:51:42 10° SW 19:54:26 79° SSE 19:57:09 10° ENE visible
25 Apr ? 21:26:35 10° WNW 21:28:14 23° NW 21:28:14 23° NW visible
26 Apr ? 20:06:31 10° WSW 20:09:11 50° NNW 20:11:52 10° NE visible
26 Apr ? 21:41:39 10° WNW 21:43:08 20° NNW 21:43:08 20° NNW visible
27 Apr ? 20:21:33 10° W 20:24:03 31° NNW 20:26:32 10° NE visible
27 Apr ? 21:56:37 10° NW 21:57:40 17° NW 21:57:40 17° NW visible
28 Apr ? 20:36:38 10° WNW 20:38:58 24° N 20:41:06 11° NE visible
28 Apr ? 22:11:24 10° NW 22:11:59 14° NW 22:11:59 14° NW visible
29 Apr ? 19:16:31 10° W 19:19:08 38° NNW 19:21:43 10° NE visible
29 Apr ? 20:51:39 10° NW 20:53:56 23° N 20:55:18 16° NE visible
29 Apr ? 22:26:06 10° NW 22:26:11 11° NW 22:26:11 11° NW visible
30 Apr ? 19:31:36 10° WNW 19:34:01 27° NNW 19:36:25 10° NE visible
30 Apr ? 21:06:32 10° NW 21:08:53 25° N 21:09:25 23° NNE visible
01 May ? 19:46:40 10° WNW 19:48:57 23° N 19:51:14 10° NE visible
01 May ? 21:21:15 10° NW 21:23:29 32° N 21:23:29 32° N visible
